Time,TemperatureF,DewpointF,PressureIn,WindDirection,WindDirectionDegrees,WindSpeedMPH,WindSpeedGustMPH,Humidity,HourlyPrecipIn,Conditions,Clouds,dailyrainin,SoftwareType,DateUTC
2013-01-18 00:02:00,19.1,10.2,30.39,SSE,158,0.0,0.0,68,0.00,,,0.00,WUHU216HW,2013-01-18 06:02:00,
2013-01-18 00:07:00,19.1,10.5,30.39,SSE,158,0.0,0.0,69,0.00,,,0.00,WUHU216HW,2013-01-18 06:07:00,
2013-01-18 00:12:00,18.9,10.4,30.39,SSE,158,0.0,0.0,69,0.00,,,0.00,WUHU216HW,2013-01-18 06:12:00,
2013-01-18 00:17:00,18.9,10.4,30.40,SSE,158,0.0,0.0,69,0.00,,,0.00,WUHU216HW,2013-01-18 06:17:00,
2013-01-18 00:22:00,18.9,10.7,30.40,SSW,203,0.0,0.0,70,0.00,,,0.00,WUHU216HW,2013-01-18 06:22:00,
2013-01-18 00:27:00,18.9,11.0,30.41,WSW,248,0.0,0.5,71,0.00,,,0.00,WUHU216HW,2013-01-18 06:27:00,
2013-01-18 00:32:00,18.9,11.0,30.41,WSW,248,0.0,0.5,71,0.00,,,0.00,WUHU216HW,2013-01-18 06:32:00,
2013-01-18 00:37:00,18.9,11.0,30.41,SW,225,0.0,0.0,71,0.00,,,0.00,WUHU216HW,2013-01-18 06:37:00,
2013-01-18 00:42:00,18.7,11.1,30.41,SW,225,0.0,0.0,72,0.00,,,0.00,WUHU216HW,2013-01-18 06:42:00,
2013-01-18 00:47:00,18.9,11.3,30.41,SW,225,0.0,0.0,72,0.00,,,0.00,WUHU216HW,2013-01-18 06:47:00,
2013-01-18 00:52:00,18.9,11.3,30.40,SW,225,0.0,0.0,72,0.00,,,0.00,WUHU216HW,2013-01-18 06:52:00,
2013-01-18 00:57:00,18.9,11.3,30.40,SW,225,0.0,0.0,72,0.00,,,0.00,WUHU216HW,2013-01-18 06:57:00,
2013-01-18 01:02:00,18.7,11.1,30.41,SW,225,0.0,0.0,72,0.00,,,0.00,WUHU216HW,2013-01-18 07:02:00,
2013-01-18 01:07:00,18.7,11.1,30.41,SW,225,0.0,0.0,72,0.00,,,0.00,WUHU216HW,2013-01-18 07:07:00,
2013-01-18 01:12:00,18.5,11.0,30.42,SW,225,0.0,0.0,72,0.00,,,0.00,WUHU216HW,2013-01-18 07:12:00,
2013-01-18 01:17:00,18.5,11.0,30.41,SSW,203,0.4,0.5,72,0.00,,,0.00,WUHU216HW,2013-01-18 07:17:00,
2013-01-18 01:22:00,18.5,11.0,30.41,SSE,158,0.0,0.5,72,0.00,,,0.00,WUHU216HW,2013-01-18 07:22:00,
2013-01-18 01:27:00,18.4,10.4,30.41,SSE,158,0.2,0.5,71,0.00,,,0.00,WUHU216HW,2013-01-18 07:27:00,
2013-01-18 01:32:00,18.4,10.4,30.41,SSE,158,0.0,0.2,71,0.00,,,0.00,WUHU216HW,2013-01-18 07:32:00,
2013-01-18 01:37:00,18.4,10.4,30.42,SSE,158,0.0,0.2,71,0.00,,,0.00,WUHU216HW,2013-01-18 07:37:00,
2013-01-18 01:42:00,18.4,10.8,30.42,SSE,158,0.0,0.0,72,0.00,,,0.00,WUHU216HW,2013-01-18 07:42:00,
2013-01-18 01:47:00,18.2,10.6,30.42,SSE,158,0.2,0.2,72,0.00,,,0.00,WUHU216HW,2013-01-18 07:47:00,
2013-01-18 01:52:00,18.2,10.6,30.42,South,180,0.0,0.2,72,0.00,,,0.00,WUHU216HW,2013-01-18 07:52:00,
2013-01-18 01:57:00,18.0,10.4,30.42,South,180,0.0,0.2,72,0.00,,,0.00,WUHU216HW,2013-01-18 07:57:00,
2013-01-18 02:02:00,18.0,10.4,30.42,South,180,0.0,0.2,72,0.00,,,0.00,WUHU216HW,2013-01-18 08:02:00,
2013-01-18 02:07:00,18.0,10.4,30.42,SSE,168,0.5,0.8,72,0.00,,,0.00,WUHU216HW,2013-01-18 08:07:00,
2013-01-18 02:12:00,18.0,10.7,30.42,SSE,158,0.5,0.8,73,0.00,,,0.00,WUHU216HW,2013-01-18 08:12:00,
2013-01-18 02:17:00,17.8,10.5,30.42,South,180,0.4,0.5,73,0.00,,,0.00,WUHU216HW,2013-01-18 08:17:00,
2013-01-18 02:22:00,17.8,10.5,30.42,SSW,198,0.4,0.5,73,0.00,,,0.00,WUHU216HW,2013-01-18 08:22:00,
2013-01-18 02:27:00,18.0,11.1,30.42,SSW,208,0.3,1.1,74,0.00,,,0.00,WUHU216HW,2013-01-18 08:27:00,
2013-01-18 02:32:00,18.2,11.2,30.42,SSW,203,1.1,1.1,74,0.00,,,0.00,WUHU216HW,2013-01-18 08:32:00,
2013-01-18 02:37:00,18.4,11.3,30.41,SSW,203,0.3,1.1,74,0.00,,,0.00,WUHU216HW,2013-01-18 08:37:00,
2013-01-18 02:42:00,18.4,11.3,30.42,SSW,203,0.3,1.1,74,0.00,,,0.00,WUHU216HW,2013-01-18 08:42:00,
2013-01-18 02:47:00,18.4,11.3,30.42,SW,225,0.2,0.5,74,0.00,,,0.00,WUHU216HW,2013-01-18 08:47:00,
2013-01-18 02:52:00,18.4,11.3,30.42,SSW,203,0.5,0.5,74,0.00,,,0.00,WUHU216HW,2013-01-18 08:52:00,
2013-01-18 02:57:00,18.4,11.3,30.42,SSW,203,0.0,0.5,74,0.00,,,0.00,WUHU216HW,2013-01-18 08:57:00,
2013-01-18 03:02:00,18.4,11.3,30.42,SSW,203,0.0,0.2,74,0.00,,,0.00,WUHU216HW,2013-01-18 09:02:00,
2013-01-18 03:07:00,18.2,11.2,30.42,SSW,203,0.0,0.0,74,0.00,,,0.00,WUHU216HW,2013-01-18 09:07:00,
2013-01-18 03:12:00,18.2,11.5,30.41,SE,135,0.2,0.2,75,0.00,,,0.00,WUHU216HW,2013-01-18 09:12:00,
2013-01-18 03:17:00,18.0,11.1,30.42,SSE,158,0.0,0.5,74,0.00,,,0.00,WUHU216HW,2013-01-18 09:17:00,
2013-01-18 03:22:00,18.0,11.4,30.41,SSE,158,0.0,0.5,75,0.00,,,0.00,WUHU216HW,2013-01-18 09:22:00,
2013-01-18 03:27:00,18.0,11.4,30.41,SSE,158,0.0,0.0,75,0.00,,,0.00,WUHU216HW,2013-01-18 09:27:00,
2013-01-18 03:32:00,18.0,11.4,30.41,SSE,158,0.2,0.2,75,0.00,,,0.00,WUHU216HW,2013-01-18 09:32:00,
2013-01-18 03:37:00,18.2,11.5,30.41,SSE,158,0.2,0.2,75,0.00,,,0.00,WUHU216HW,2013-01-18 09:37:00,
2013-01-18 03:42:00,18.2,11.5,30.41,SE,140,0.2,0.2,75,0.00,,,0.00,WUHU216HW,2013-01-18 09:42:00,
2013-01-18 03:47:00,18.4,11.7,30.41,SSE,153,0.4,0.5,75,0.00,,,0.00,WUHU216HW,2013-01-18 09:47:00,
2013-01-18 03:52:00,18.4,11.7,30.42,SSE,158,0.0,0.5,75,0.00,,,0.00,WUHU216HW,2013-01-18 09:52:00,
2013-01-18 03:57:00,18.5,12.2,30.42,SSE,158,0.0,0.5,76,0.00,,,0.00,WUHU216HW,2013-01-18 09:57:00,
2013-01-18 04:02:00,18.7,12.3,30.42,SSW,203,0.5,0.5,76,0.00,,,0.00,WUHU216HW,2013-01-18 10:02:00,
2013-01-18 04:07:00,19.1,13.0,30.41,SSW,203,0.2,0.8,77,0.00,,,0.00,WUHU216HW,2013-01-18 10:07:00,
2013-01-18 04:12:00,19.4,13.3,30.41,SSW,203,0.2,0.8,77,0.00,,,0.00,WUHU216HW,2013-01-18 10:12:00,
2013-01-18 04:17:00,19.6,13.5,30.41,SSW,203,0.0,0.8,77,0.00,,,0.00,WUHU216HW,2013-01-18 10:17:00,
2013-01-18 04:22:00,19.8,13.7,30.41,SSW,203,0.4,0.8,77,0.00,,,0.00,WUHU216HW,2013-01-18 10:22:00,
2013-01-18 04:27:00,19.8,13.7,30.41,SSW,203,0.5,0.5,77,0.00,,,0.00,WUHU216HW,2013-01-18 10:27:00,
2013-01-18 04:32:00,20.0,13.5,30.41,SSW,203,0.2,0.8,76,0.00,,,0.00,WUHU216HW,2013-01-18 10:32:00,
2013-01-18 04:37:00,20.0,13.5,30.41,South,180,0.3,0.8,76,0.00,,,0.00,WUHU216HW,2013-01-18 10:37:00,
2013-01-18 04:42:00,20.0,13.5,30.41,SSE,158,0.0,0.5,76,0.00,,,0.00,WUHU216HW,2013-01-18 10:42:00,
2013-01-18 04:47:00,19.8,13.3,30.41,SSE,158,0.2,0.5,76,0.00,,,0.00,WUHU216HW,2013-01-18 10:47:00,
2013-01-18 04:52:00,19.8,13.3,30.40,South,180,1.1,1.1,76,0.00,,,0.00,WUHU216HW,2013-01-18 10:52:00,
2013-01-18 04:57:00,19.8,13.3,30.41,South,180,0.3,1.1,76,0.00,,,0.00,WUHU216HW,2013-01-18 10:57:00,
2013-01-18 05:02:00,19.6,13.1,30.40,SSE,158,1.6,1.6,76,0.00,,,0.00,WUHU216HW,2013-01-18 11:02:00,
2013-01-18 05:07:00,19.4,13.0,30.40,SSE,158,0.8,1.6,76,0.00,,,0.00,WUHU216HW,2013-01-18 11:07:00,
2013-01-18 05:12:00,19.4,13.0,30.40,SSE,158,1.1,1.6,76,0.00,,,0.00,WUHU216HW,2013-01-18 11:12:00,
2013-01-18 05:17:00,19.4,13.0,30.40,SSE,158,1.3,1.6,76,0.00,,,0.00,WUHU216HW,2013-01-18 11:17:00,
2013-01-18 05:22:00,19.3,12.8,30.40,South,182,0.7,1.3,76,0.00,,,0.00,WUHU216HW,2013-01-18 11:22:00,
2013-01-18 05:27:00,19.3,12.8,30.40,SSE,158,2.2,2.6,76,0.00,,,0.00,WUHU216HW,2013-01-18 11:27:00,
2013-01-18 05:32:00,19.3,12.8,30.40,SSE,158,3.5,3.5,76,0.00,,,0.00,WUHU216HW,2013-01-18 11:32:00,
2013-01-18 05:37:00,19.3,12.8,30.40,South,185,2.3,4.3,76,0.00,,,0.00,WUHU216HW,2013-01-18 11:37:00,
2013-01-18 05:42:00,19.4,13.3,30.40,South,180,2.2,4.3,77,0.00,,,0.00,WUHU216HW,2013-01-18 11:42:00,
2013-01-18 05:47:00,19.4,13.3,30.40,South,180,2.2,3.0,77,0.00,,,0.00,WUHU216HW,2013-01-18 11:47:00,
2013-01-18 05:52:00,19.6,13.5,30.40,South,182,3.0,3.7,77,0.00,,,0.00,WUHU216HW,2013-01-18 11:52:00,
2013-01-18 05:57:00,19.6,13.8,30.40,South,180,1.6,3.7,78,0.00,,,0.00,WUHU216HW,2013-01-18 11:57:00,
2013-01-18 06:02:00,19.6,13.8,30.41,South,180,2.6,4.1,78,0.00,,,0.00,WUHU216HW,2013-01-18 12:02:00,
2013-01-18 06:07:00,19.6,13.8,30.40,South,180,4.8,4.8,78,0.00,,,0.00,WUHU216HW,2013-01-18 12:07:00,
2013-01-18 06:12:00,19.6,13.8,30.40,South,180,3.7,4.8,78,0.00,,,0.00,WUHU216HW,2013-01-18 12:12:00,
2013-01-18 06:17:00,19.6,13.8,30.40,South,176,4.0,5.2,78,0.00,,,0.00,WUHU216HW,2013-01-18 12:17:00,
2013-01-18 06:22:00,19.8,14.0,30.40,SSW,199,1.0,5.2,78,0.00,,,0.00,WUHU216HW,2013-01-18 12:22:00,
2013-01-18 06:27:00,19.8,14.0,30.40,South,180,3.3,5.2,78,0.00,,,0.00,WUHU216HW,2013-01-18 12:27:00,
2013-01-18 06:32:00,19.8,14.0,30.39,South,180,4.1,5.6,78,0.00,,,0.00,WUHU216HW,2013-01-18 12:32:00,
2013-01-18 06:37:00,19.8,14.0,30.39,SSW,203,4.3,5.6,78,0.00,,,0.00,WUHU216HW,2013-01-18 12:37:00,
2013-01-18 06:42:00,19.8,14.0,30.39,SSE,167,3.9,5.2,78,0.00,,,0.00,WUHU216HW,2013-01-18 12:42:00,
2013-01-18 06:47:00,19.8,14.0,30.39,South,179,2.9,5.2,78,0.00,,,0.00,WUHU216HW,2013-01-18 12:47:00,
2013-01-18 06:52:00,20.0,14.5,30.39,SSE,158,4.3,5.9,79,0.00,,,0.00,WUHU216HW,2013-01-18 12:52:00,
2013-01-18 06:57:00,20.0,14.5,30.40,South,180,4.1,5.9,79,0.00,,,0.00,WUHU216HW,2013-01-18 12:57:00,
2013-01-18 07:02:00,20.2,14.7,30.39,SSE,158,4.1,4.8,79,0.00,,,0.00,WUHU216HW,2013-01-18 13:02:00,
2013-01-18 07:07:00,20.3,14.9,30.39,South,186,3.7,5.2,79,0.00,,,0.00,WUHU216HW,2013-01-18 13:07:00,
2013-01-18 07:12:00,20.5,15.0,30.39,South,180,3.7,5.2,79,0.00,,,0.00,WUHU216HW,2013-01-18 13:12:00,
2013-01-18 07:17:00,20.5,15.0,30.39,South,191,2.1,4.8,79,0.00,,,0.00,WUHU216HW,2013-01-18 13:17:00,
2013-01-18 07:22:00,20.7,15.5,30.39,South,178,4.8,6.7,80,0.00,,,0.00,WUHU216HW,2013-01-18 13:22:00,
2013-01-18 07:27:00,21.1,15.8,30.39,South,180,3.0,6.7,80,0.00,,,0.00,WUHU216HW,2013-01-18 13:27:00,
2013-01-18 07:32:00,21.2,15.8,30.39,SSE,158,5.6,5.6,79,0.00,,,0.00,WUHU216HW,2013-01-18 13:32:00,
2013-01-18 07:37:00,21.2,15.8,30.38,SSW,192,4.8,5.9,79,0.00,,,0.00,WUHU216HW,2013-01-18 13:37:00,
2013-01-18 07:42:00,21.4,16.2,30.38,South,173,4.1,5.9,80,0.00,,,0.00,WUHU216HW,2013-01-18 13:42:00,
2013-01-18 07:47:00,21.8,16.6,30.38,SSW,203,5.6,5.6,80,0.00,,,0.00,WUHU216HW,2013-01-18 13:47:00,
2013-01-18 07:52:00,22.0,16.5,30.37,South,180,5.2,5.6,79,0.00,,,0.00,WUHU216HW,2013-01-18 13:52:00,
2013-01-18 07:57:00,22.1,16.9,30.37,SSE,156,5.8,7.0,80,0.00,,,0.00,WUHU216HW,2013-01-18 13:57:00,
2013-01-18 08:02:00,22.5,17.3,30.37,SSE,158,4.5,7.0,80,0.00,,,0.00,WUHU216HW,2013-01-18 14:02:00,
2013-01-18 08:07:00,22.7,17.2,30.38,South,180,5.9,8.6,79,0.00,,,0.00,WUHU216HW,2013-01-18 14:07:00,
2013-01-18 08:12:00,22.9,17.4,30.37,SSW,203,4.6,8.6,79,0.00,,,0.00,WUHU216HW,2013-01-18 14:12:00,
2013-01-18 08:17:00,23.2,17.7,30.38,SSE,155,4.6,5.9,79,0.00,,,0.00,WUHU216HW,2013-01-18 14:17:00,
2013-01-18 08:22:00,23.4,17.6,30.38,South,186,4.6,6.5,78,0.00,,,0.00,WUHU216HW,2013-01-18 14:22:00,
2013-01-18 08:27:00,23.6,17.7,30.37,South,181,4.1,7.6,78,0.00,,,0.00,WUHU216HW,2013-01-18 14:27:00,
2013-01-18 08:32:00,23.9,18.4,30.38,SSW,203,5.9,7.6,79,0.00,,,0.00,WUHU216HW,2013-01-18 14:32:00,
2013-01-18 08:37:00,24.1,18.5,30.38,SSE,153,5.4,8.0,79,0.00,,,0.00,WUHU216HW,2013-01-18 14:37:00,
2013-01-18 08:42:00,24.5,18.9,30.38,South,180,7.6,9.4,79,0.00,,,0.00,WUHU216HW,2013-01-18 14:42:00,
2013-01-18 08:47:00,24.8,19.3,30.37,SSW,195,4.4,9.4,79,0.00,,,0.00,WUHU216HW,2013-01-18 14:47:00,
2013-01-18 08:52:00,25.0,19.4,30.37,South,178,6.8,10.7,79,0.00,,,0.00,WUHU216HW,2013-01-18 14:52:00,
2013-01-18 08:57:00,25.2,19.3,30.37,South,180,8.3,10.7,78,0.00,,,0.00,WUHU216HW,2013-01-18 14:57:00,
2013-01-18 09:02:00,25.6,19.6,30.36,South,180,9.7,10.2,78,0.00,,,0.00,WUHU216HW,2013-01-18 15:02:00,
2013-01-18 09:07:00,25.7,19.8,30.37,South,184,5.5,10.2,78,0.00,,,0.00,WUHU216HW,2013-01-18 15:07:00,
2013-01-18 09:12:00,26.1,19.8,30.37,SW,225,3.0,9.7,77,0.00,,,0.00,WUHU216HW,2013-01-18 15:12:00,
2013-01-18 09:17:00,26.3,20.0,30.37,SSE,164,3.6,7.8,77,0.00,,,0.00,WUHU216HW,2013-01-18 15:17:00,
2013-01-18 09:22:00,26.8,20.5,30.37,SSE,158,7.6,7.8,77,0.00,,,0.00,WUHU216HW,2013-01-18 15:22:00,
2013-01-18 09:27:00,27.2,20.5,30.37,SSW,205,4.6,8.0,76,0.00,,,0.00,WUHU216HW,2013-01-18 15:27:00,
2013-01-18 09:32:00,27.5,20.9,30.36,South,180,8.9,10.2,76,0.00,,,0.00,WUHU216HW,2013-01-18 15:32:00,
2013-01-18 09:37:00,27.9,21.0,30.36,South,180,11.0,11.0,75,0.00,,,0.00,WUHU216HW,2013-01-18 15:37:00,
2013-01-18 09:42:00,28.3,21.3,30.36,South,180,7.8,11.8,75,0.00,,,0.00,WUHU216HW,2013-01-18 15:42:00,
2013-01-18 09:47:00,28.6,21.7,30.36,SSW,193,7.5,11.8,75,0.00,,,0.00,WUHU216HW,2013-01-18 15:47:00,
2013-01-18 09:52:00,29.0,21.7,30.35,South,187,7.5,13.9,74,0.00,,,0.00,WUHU216HW,2013-01-18 15:52:00,
2013-01-18 09:57:00,29.5,21.9,30.35,South,177,12.1,15.4,73,0.00,,,0.00,WUHU216HW,2013-01-18 15:57:00,
2013-01-18 10:02:00,29.7,22.1,30.35,South,174,10.5,15.4,73,0.00,,,0.00,WUHU216HW,2013-01-18 16:02:00,
2013-01-18 10:07:00,29.9,22.2,30.35,South,182,6.6,12.6,73,0.00,,,0.00,WUHU216HW,2013-01-18 16:07:00,
2013-01-18 10:12:00,29.9,22.2,30.34,South,180,6.6,12.4,73,0.00,,,0.00,WUHU216HW,2013-01-18 16:12:00,
2013-01-18 10:17:00,30.4,22.4,30.34,South,183,9.5,12.4,72,0.00,,,0.00,WUHU216HW,2013-01-18 16:17:00,
2013-01-18 10:22:00,31.0,23.0,30.33,SSE,158,10.2,11.8,72,0.00,,,0.00,WUHU216HW,2013-01-18 16:22:00,
2013-01-18 10:27:00,31.0,22.3,30.33,South,174,13.7,17.2,70,0.00,,,0.00,WUHU216HW,2013-01-18 16:27:00,
2013-01-18 10:32:00,31.1,22.5,30.33,SSW,202,7.0,17.2,70,0.00,,,0.00,WUHU216HW,2013-01-18 16:32:00,
2013-01-18 10:37:00,31.3,23.1,30.33,SSW,197,5.2,11.8,71,0.00,,,0.00,WUHU216HW,2013-01-18 16:37:00,
2013-01-18 10:42:00,31.3,22.7,30.32,South,180,8.1,12.4,70,0.00,,,0.00,WUHU216HW,2013-01-18 16:42:00,
2013-01-18 10:47:00,31.7,23.0,30.32,SSW,208,7.9,12.6,70,0.00,,,0.00,WUHU216HW,2013-01-18 16:47:00,
2013-01-18 10:52:00,31.9,23.2,30.31,SSW,192,11.9,19.9,70,0.00,,,0.00,WUHU216HW,2013-01-18 16:52:00,
2013-01-18 10:57:00,32.0,23.4,30.30,South,189,7.3,19.9,70,0.00,,,0.00,WUHU216HW,2013-01-18 16:57:00,
2013-01-18 11:02:00,32.8,24.0,30.30,SSE,158,13.9,14.5,70,0.00,,,0.00,WUHU216HW,2013-01-18 17:02:00,
2013-01-18 11:07:00,33.3,24.6,30.30,SSW,203,11.8,14.3,70,0.00,,,0.00,WUHU216HW,2013-01-18 17:07:00,
2013-01-18 11:12:00,33.8,24.3,30.29,SSW,203,7.6,13.7,68,0.00,,,0.00,WUHU216HW,2013-01-18 17:12:00,
2013-01-18 11:17:00,34.0,24.1,30.29,SSW,211,6.6,13.7,67,0.00,,,0.00,WUHU216HW,2013-01-18 17:17:00,
2013-01-18 11:22:00,34.2,24.3,30.28,SW,222,11.4,21.5,67,0.00,,,0.00,WUHU216HW,2013-01-18 17:22:00,
2013-01-18 11:27:00,34.4,24.5,30.27,SSW,203,11.8,21.5,67,0.00,,,0.00,WUHU216HW,2013-01-18 17:27:00,
2013-01-18 11:32:00,34.6,24.7,30.27,South,171,10.8,19.6,67,0.00,,,0.00,WUHU216HW,2013-01-18 17:32:00,
2013-01-18 11:37:00,34.6,24.7,30.26,South,189,10.0,19.6,67,0.00,,,0.00,WUHU216HW,2013-01-18 17:37:00,
2013-01-18 11:42:00,34.7,24.5,30.26,South,180,13.4,13.4,66,0.00,,,0.00,WUHU216HW,2013-01-18 17:42:00,
2013-01-18 11:47:00,35.1,24.8,30.25,SSW,192,11.8,15.0,66,0.00,,,0.00,WUHU216HW,2013-01-18 17:47:00,
2013-01-18 11:52:00,35.3,24.7,30.25,SSW,209,9.5,15.0,65,0.00,,,0.00,WUHU216HW,2013-01-18 17:52:00,
2013-01-18 11:57:00,35.6,25.0,30.25,SSW,203,7.6,15.4,65,0.00,,,0.00,WUHU216HW,2013-01-18 17:57:00,
2013-01-18 12:02:00,36.2,24.9,30.24,SW,222,11.2,15.4,63,0.00,,,0.00,WUHU216HW,2013-01-18 18:02:00,
2013-01-18 12:07:00,36.7,25.3,30.23,SSW,203,13.7,16.1,63,0.00,,,0.00,WUHU216HW,2013-01-18 18:07:00,
2013-01-18 12:12:00,36.9,24.8,30.23,SSW,202,11.7,21.5,61,0.00,,,0.00,WUHU216HW,2013-01-18 18:12:00,
2013-01-18 12:17:00,36.9,25.1,30.22,SSW,203,9.4,21.5,62,0.00,,,0.00,WUHU216HW,2013-01-18 18:17:00,
2013-01-18 12:22:00,37.3,25.5,30.22,South,180,16.1,16.1,62,0.00,,,0.00,WUHU216HW,2013-01-18 18:22:00,
2013-01-18 12:27:00,37.6,26.1,30.21,SSW,203,12.4,16.1,63,0.00,,,0.00,WUHU216HW,2013-01-18 18:27:00,
2013-01-18 12:32:00,37.8,25.9,30.21,SSW,203,11.0,18.0,62,0.00,,,0.00,WUHU216HW,2013-01-18 18:32:00,
2013-01-18 12:37:00,38.0,26.1,30.20,SSW,197,14.9,18.0,62,0.00,,,0.00,WUHU216HW,2013-01-18 18:37:00,
2013-01-18 12:43:00,38.0,26.1,30.20,South,180,24.7,24.7,62,0.00,,,0.00,WUHU216HW,2013-01-18 18:43:00,
2013-01-18 12:48:00,38.0,25.8,30.19,SW,225,12.6,24.7,61,0.00,,,0.00,WUHU216HW,2013-01-18 18:48:00,
2013-01-18 12:53:00,38.2,25.8,30.19,South,185,14.9,19.9,61,0.00,,,0.00,WUHU216HW,2013-01-18 18:53:00,
2013-01-18 12:58:00,38.2,25.8,30.18,SW,216,9.7,25.2,61,0.00,,,0.00,WUHU216HW,2013-01-18 18:58:00,
2013-01-18 13:03:00,38.3,26.0,30.18,SW,215,10.7,25.2,61,0.00,,,0.00,WUHU216HW,2013-01-18 19:03:00,
2013-01-18 13:08:00,38.5,26.6,30.17,SSW,203,18.0,18.8,62,0.00,,,0.00,WUHU216HW,2013-01-18 19:08:00,
2013-01-18 13:13:00,38.5,26.6,30.17,SSW,192,15.6,18.8,62,0.00,,,0.00,WUHU216HW,2013-01-18 19:13:00,
2013-01-18 13:18:00,38.5,26.2,30.17,SW,222,8.6,18.8,61,0.00,,,0.00,WUHU216HW,2013-01-18 19:18:00,
2013-01-18 13:23:00,38.9,26.9,30.17,SW,225,8.0,17.8,62,0.00,,,0.00,WUHU216HW,2013-01-18 19:23:00,
2013-01-18 13:28:00,39.2,27.2,30.17,WSW,248,11.8,12.4,62,0.00,,,0.00,WUHU216HW,2013-01-18 19:28:00,
2013-01-18 13:33:00,39.2,26.8,30.16,SSW,206,14.2,18.8,61,0.00,,,0.00,WUHU216HW,2013-01-18 19:33:00,
2013-01-18 13:38:00,39.2,27.2,30.16,SSE,158,10.2,18.8,62,0.00,,,0.00,WUHU216HW,2013-01-18 19:38:00,
2013-01-18 13:43:00,39.4,27.0,30.15,SSW,203,13.9,29.0,61,0.00,,,0.00,WUHU216HW,2013-01-18 19:43:00,
2013-01-18 13:48:00,39.4,27.0,30.15,SSW,194,10.8,29.0,61,0.00,,,0.00,WUHU216HW,2013-01-18 19:48:00,
2013-01-18 13:53:00,39.4,27.4,30.15,South,178,12.0,17.2,62,0.00,,,0.00,WUHU216HW,2013-01-18 19:53:00,
2013-01-18 13:58:00,39.4,27.4,30.14,SSW,201,15.5,22.0,62,0.00,,,0.00,WUHU216HW,2013-01-18 19:58:00,
2013-01-18 14:03:00,39.4,27.4,30.13,SSW,203,16.1,22.0,62,0.00,,,0.00,WUHU216HW,2013-01-18 20:03:00,
2013-01-18 14:08:00,39.4,27.4,30.13,SW,219,8.4,16.1,62,0.00,,,0.00,WUHU216HW,2013-01-18 20:08:00,
2013-01-18 14:13:00,39.8,27.4,30.12,SSW,203,11.3,16.1,61,0.00,,,0.00,WUHU216HW,2013-01-18 20:13:00,
2013-01-18 14:18:00,39.6,27.2,30.12,South,189,16.1,24.7,61,0.00,,,0.00,WUHU216HW,2013-01-18 20:18:00,
2013-01-18 14:23:00,39.6,27.2,30.12,South,180,17.2,24.7,61,0.00,,,0.00,WUHU216HW,2013-01-18 20:23:00,
2013-01-18 14:28:00,39.6,27.2,30.12,South,176,19.5,22.3,61,0.00,,,0.00,WUHU216HW,2013-01-18 20:28:00,
2013-01-18 14:33:00,39.8,27.4,30.11,SSW,203,19.9,22.6,61,0.00,,,0.00,WUHU216HW,2013-01-18 20:33:00,
2013-01-18 14:38:00,39.8,27.7,30.11,SSE,158,17.4,22.6,62,0.00,,,0.00,WUHU216HW,2013-01-18 20:38:00,
2013-01-18 14:43:00,40.0,27.5,30.11,South,190,12.0,20.2,61,0.00,,,0.00,WUHU216HW,2013-01-18 20:43:00,
2013-01-18 14:48:00,40.0,27.5,30.10,SSW,195,8.6,17.4,61,0.00,,,0.00,WUHU216HW,2013-01-18 20:48:00,
2013-01-18 14:53:00,40.0,27.5,30.10,SSW,202,15.0,17.2,61,0.00,,,0.00,WUHU216HW,2013-01-18 20:53:00,
2013-01-18 14:58:00,40.0,27.9,30.10,SE,135,19.6,19.6,62,0.00,,,0.00,WUHU216HW,2013-01-18 20:58:00,
2013-01-18 15:03:00,40.0,27.5,30.09,South,180,15.4,19.6,61,0.00,,,0.00,WUHU216HW,2013-01-18 21:03:00,
2013-01-18 15:08:00,39.8,27.7,30.09,South,188,13.2,20.6,62,0.00,,,0.00,WUHU216HW,2013-01-18 21:08:00,
2013-01-18 15:13:00,39.8,27.7,30.09,South,180,13.7,20.6,62,0.00,,,0.00,WUHU216HW,2013-01-18 21:13:00,
2013-01-18 15:18:00,39.8,27.7,30.08,SSW,203,15.8,19.9,62,0.00,,,0.00,WUHU216HW,2013-01-18 21:18:00,
2013-01-18 15:23:00,39.8,27.7,30.08,SSW,194,11.0,19.9,62,0.00,,,0.00,WUHU216HW,2013-01-18 21:23:00,
2013-01-18 15:28:00,39.8,27.7,30.08,SSE,168,15.4,19.6,62,0.00,,,0.00,WUHU216HW,2013-01-18 21:28:00,
2013-01-18 15:33:00,39.6,27.5,30.07,South,191,14.6,19.6,62,0.00,,,0.00,WUHU216HW,2013-01-18 21:33:00,
2013-01-18 15:38:00,39.6,27.5,30.07,SSW,192,15.1,18.8,62,0.00,,,0.00,WUHU216HW,2013-01-18 21:38:00,
2013-01-18 15:43:00,39.6,27.5,30.07,South,180,21.5,22.8,62,0.00,,,0.00,WUHU216HW,2013-01-18 21:43:00,
2013-01-18 15:48:00,39.4,27.8,30.06,SSW,203,16.1,22.8,63,0.00,,,0.00,WUHU216HW,2013-01-18 21:48:00,
2013-01-18 15:53:00,39.2,27.2,30.06,SSW,205,15.7,20.9,62,0.00,,,0.00,WUHU216HW,2013-01-18 21:53:00,
2013-01-18 15:58:00,39.2,27.6,30.06,SSW,203,9.1,20.9,63,0.00,,,0.00,WUHU216HW,2013-01-18 21:58:00,
2013-01-18 16:03:00,39.4,27.8,30.05,South,185,9.6,18.2,63,0.00,,,0.00,WUHU216HW,2013-01-18 22:03:00,
2013-01-18 16:08:00,39.2,27.6,30.05,South,182,11.5,16.7,63,0.00,,,0.00,WUHU216HW,2013-01-18 22:08:00,
2013-01-18 16:13:00,39.1,27.5,30.05,SSW,205,12.7,18.2,63,0.00,,,0.00,WUHU216HW,2013-01-18 22:13:00,
2013-01-18 16:18:00,38.9,27.3,30.04,SSW,203,12.6,18.2,63,0.00,,,0.00,WUHU216HW,2013-01-18 22:18:00,
2013-01-18 16:23:00,38.7,27.1,30.04,SSW,193,8.4,17.2,63,0.00,,,0.00,WUHU216HW,2013-01-18 22:23:00,
2013-01-18 16:28:00,38.5,26.9,30.04,South,180,13.4,30.1,63,0.00,,,0.00,WUHU216HW,2013-01-18 22:28:00,
2013-01-18 16:33:00,38.2,26.7,30.03,SSE,158,22.8,30.1,63,0.00,,,0.00,WUHU216HW,2013-01-18 22:33:00,
2013-01-18 16:38:00,38.0,26.5,30.03,SSW,193,13.4,22.8,63,0.00,,,0.00,WUHU216HW,2013-01-18 22:38:00,
2013-01-18 16:43:00,37.8,26.6,30.02,SSW,203,15.6,17.2,64,0.00,,,0.00,WUHU216HW,2013-01-18 22:43:00,
2013-01-18 16:48:00,37.6,26.6,30.03,SSW,194,13.5,19.9,64,0.00,,,0.00,WUHU216HW,2013-01-18 22:48:00,
2013-01-18 16:53:00,37.4,26.7,30.02,SSE,158,16.3,20.6,65,0.00,,,0.00,WUHU216HW,2013-01-18 22:53:00,
2013-01-18 16:58:00,37.1,26.4,30.02,South,191,10.6,20.6,65,0.00,,,0.00,WUHU216HW,2013-01-18 22:58:00,
2013-01-18 17:03:00,37.1,26.4,30.02,SSE,158,15.8,19.9,65,0.00,,,0.00,WUHU216HW,2013-01-18 23:03:00,
2013-01-18 17:08:00,37.1,26.4,30.02,SSE,158,15.8,23.6,65,0.00,,,0.00,WUHU216HW,2013-01-18 23:08:00,
2013-01-18 17:13:00,36.9,26.2,30.02,South,185,12.1,23.6,65,0.00,,,0.00,WUHU216HW,2013-01-18 23:13:00,
2013-01-18 17:18:00,36.9,26.6,30.02,South,180,15.8,17.8,66,0.00,,,0.00,WUHU216HW,2013-01-18 23:18:00,
2013-01-18 17:23:00,36.7,26.5,30.02,South,175,13.2,16.7,66,0.00,,,0.00,WUHU216HW,2013-01-18 23:23:00,
2013-01-18 17:28:00,36.7,26.8,30.02,South,184,15.7,21.5,67,0.00,,,0.00,WUHU216HW,2013-01-18 23:28:00,
2013-01-18 17:33:00,36.5,26.7,30.02,South,189,11.7,21.5,67,0.00,,,0.00,WUHU216HW,2013-01-18 23:33:00,
2013-01-18 17:38:00,36.4,26.5,30.02,SSE,158,16.3,19.3,67,0.00,,,0.00,WUHU216HW,2013-01-18 23:38:00,
2013-01-18 17:43:00,36.4,26.5,30.03,SSW,203,11.8,18.0,67,0.00,,,0.00,WUHU216HW,2013-01-18 23:43:00,
2013-01-18 17:48:00,36.4,26.5,30.03,SSE,168,10.4,18.0,67,0.00,,,0.00,WUHU216HW,2013-01-18 23:48:00,
2013-01-18 17:53:00,36.4,26.5,30.03,South,174,10.8,19.1,67,0.00,,,0.00,WUHU216HW,2013-01-18 23:53:00,
2013-01-18 17:58:00,36.4,26.8,30.03,SW,225,13.7,19.1,68,0.00,,,0.00,WUHU216HW,2013-01-18 23:58:00,
2013-01-18 18:03:00,36.4,26.5,30.03,SW,225,9.5,15.0,67,0.00,,,0.00,WUHU216HW,2013-01-19 00:03:00,
2013-01-18 18:08:00,36.4,26.8,30.03,South,180,12.6,15.0,68,0.00,,,0.00,WUHU216HW,2013-01-19 00:08:00,
2013-01-18 18:13:00,36.5,26.7,30.03,South,186,15.0,19.9,67,0.00,,,0.00,WUHU216HW,2013-01-19 00:13:00,
2013-01-18 18:18:00,36.4,26.8,30.03,SSW,212,9.4,19.9,68,0.00,,,0.00,WUHU216HW,2013-01-19 00:18:00,
2013-01-18 18:23:00,36.4,26.8,30.03,SSW,203,11.8,12.8,68,0.00,,,0.00,WUHU216HW,2013-01-19 00:23:00,
2013-01-18 18:28:00,36.4,26.8,30.03,South,189,12.8,17.8,68,0.00,,,0.00,WUHU216HW,2013-01-19 00:28:00,
2013-01-18 18:33:00,36.4,27.2,30.03,South,180,12.4,17.8,69,0.00,,,0.00,WUHU216HW,2013-01-19 00:33:00,
2013-01-18 18:38:00,36.2,27.0,30.03,SSW,205,12.7,20.9,69,0.00,,,0.00,WUHU216HW,2013-01-19 00:38:00,
2013-01-18 18:43:00,36.2,27.0,30.03,SW,225,8.9,20.9,69,0.00,,,0.00,WUHU216HW,2013-01-19 00:43:00,
2013-01-18 18:48:00,36.4,27.2,30.03,South,180,13.7,16.1,69,0.00,,,0.00,WUHU216HW,2013-01-19 00:48:00,
2013-01-18 18:53:00,36.4,27.2,30.03,SSW,198,12.6,20.6,69,0.00,,,0.00,WUHU216HW,2013-01-19 00:53:00,
2013-01-18 18:58:00,36.4,27.2,30.03,South,180,8.5,20.6,69,0.00,,,0.00,WUHU216HW,2013-01-19 00:58:00,
2013-01-18 19:03:00,36.4,27.2,30.03,SSW,193,9.3,16.1,69,0.00,,,0.00,WUHU216HW,2013-01-19 01:03:00,
2013-01-18 19:08:00,36.4,27.2,30.03,SSW,202,11.4,16.1,69,0.00,,,0.00,WUHU216HW,2013-01-19 01:08:00,
2013-01-18 19:13:00,36.4,27.5,30.02,South,182,7.7,18.8,70,0.00,,,0.00,WUHU216HW,2013-01-19 01:13:00,
2013-01-18 19:18:00,36.5,27.4,30.02,South,186,9.8,18.8,69,0.00,,,0.00,WUHU216HW,2013-01-19 01:18:00,
2013-01-18 19:23:00,36.5,27.4,30.02,South,180,17.2,17.2,69,0.00,,,0.00,WUHU216HW,2013-01-19 01:23:00,
2013-01-18 19:28:00,36.7,27.6,30.02,SSW,210,10.7,17.2,69,0.00,,,0.00,WUHU216HW,2013-01-19 01:28:00,
2013-01-18 19:33:00,36.9,27.7,30.02,SW,225,13.7,17.2,69,0.00,,,0.00,WUHU216HW,2013-01-19 01:33:00,
2013-01-18 19:38:00,36.9,27.7,30.02,SW,218,8.2,16.7,69,0.00,,,0.00,WUHU216HW,2013-01-19 01:38:00,
2013-01-18 19:43:00,37.1,27.9,30.02,SSW,205,10.0,16.3,69,0.00,,,0.00,WUHU216HW,2013-01-19 01:43:00,
2013-01-18 19:48:00,37.1,27.9,30.02,South,180,7.0,16.3,69,0.00,,,0.00,WUHU216HW,2013-01-19 01:48:00,
2013-01-18 19:53:00,37.1,27.9,30.02,SW,225,8.0,13.2,69,0.00,,,0.00,WUHU216HW,2013-01-19 01:53:00,
2013-01-18 19:58:00,37.1,27.9,30.01,South,180,9.7,16.1,69,0.00,,,0.00,WUHU216HW,2013-01-19 01:58:00,
2013-01-18 20:03:00,37.1,27.9,30.01,SSE,158,15.0,16.1,69,0.00,,,0.00,WUHU216HW,2013-01-19 02:03:00,
2013-01-18 20:08:00,37.1,27.9,30.01,South,180,10.2,18.8,69,0.00,,,0.00,WUHU216HW,2013-01-19 02:08:00,
2013-01-18 20:13:00,37.1,27.9,30.01,SSW,203,10.4,18.8,69,0.00,,,0.00,WUHU216HW,2013-01-19 02:13:00,
2013-01-18 20:18:00,37.3,28.1,30.01,SSW,203,9.4,14.3,69,0.00,,,0.00,WUHU216HW,2013-01-19 02:18:00,
2013-01-18 20:23:00,37.3,28.1,30.01,SSW,203,12.4,14.8,69,0.00,,,0.00,WUHU216HW,2013-01-19 02:23:00,
2013-01-18 20:28:00,37.3,28.1,30.01,SSW,203,15.4,15.4,69,0.00,,,0.00,WUHU216HW,2013-01-19 02:28:00,
2013-01-18 20:33:00,37.4,28.3,30.01,SSW,201,8.3,15.4,69,0.00,,,0.00,WUHU216HW,2013-01-19 02:33:00,
2013-01-18 20:38:00,37.4,28.3,30.01,SSW,210,7.7,15.6,69,0.00,,,0.00,WUHU216HW,2013-01-19 02:38:00,
2013-01-18 20:43:00,37.4,28.3,30.01,South,190,8.5,15.6,69,0.00,,,0.00,WUHU216HW,2013-01-19 02:43:00,
2013-01-18 20:48:00,37.6,28.5,30.01,SSW,205,7.5,14.3,69,0.00,,,0.00,WUHU216HW,2013-01-19 02:48:00,
2013-01-18 20:53:00,37.6,28.5,30.01,South,180,8.3,14.3,69,0.00,,,0.00,WUHU216HW,2013-01-19 02:53:00,
2013-01-18 20:58:00,37.6,28.5,30.01,SSW,208,7.1,13.2,69,0.00,,,0.00,WUHU216HW,2013-01-19 02:58:00,
2013-01-18 21:03:00,37.6,28.5,30.01,SW,225,17.4,17.4,69,0.00,,,0.00,WUHU216HW,2013-01-19 03:03:00,
2013-01-18 21:08:00,37.6,28.5,30.01,SSW,208,8.5,17.4,69,0.00,,,0.00,WUHU216HW,2013-01-19 03:08:00,
2013-01-18 21:13:00,37.6,28.5,30.00,SSW,194,7.8,14.5,69,0.00,,,0.00,WUHU216HW,2013-01-19 03:13:00,
2013-01-18 21:18:00,37.6,28.5,30.00,SSW,203,12.6,12.6,69,0.00,,,0.00,WUHU216HW,2013-01-19 03:18:00,
2013-01-18 21:23:00,37.6,28.5,30.00,SSW,208,10.9,12.6,69,0.00,,,0.00,WUHU216HW,2013-01-19 03:23:00,
2013-01-18 21:28:00,37.8,28.5,30.00,SW,225,9.7,12.6,69,0.00,,,0.00,WUHU216HW,2013-01-19 03:28:00,
2013-01-18 21:33:00,37.8,28.5,30.00,South,182,6.5,19.6,69,0.00,,,0.00,WUHU216HW,2013-01-19 03:33:00,
2013-01-18 21:38:00,37.6,28.8,30.00,SSW,206,6.3,19.6,70,0.00,,,0.00,WUHU216HW,2013-01-19 03:38:00,
2013-01-18 21:43:00,37.4,28.6,30.00,South,184,7.3,13.9,70,0.00,,,0.00,WUHU216HW,2013-01-19 03:43:00,
2013-01-18 21:48:00,37.6,28.8,29.99,SSW,203,10.2,13.9,70,0.00,,,0.00,WUHU216HW,2013-01-19 03:48:00,
2013-01-18 21:53:00,37.4,28.6,29.99,SSW,200,11.5,12.6,70,0.00,,,0.00,WUHU216HW,2013-01-19 03:53:00,
2013-01-18 21:58:00,37.4,28.6,29.99,SW,227,8.1,12.6,70,0.00,,,0.00,WUHU216HW,2013-01-19 03:58:00,
2013-01-18 22:03:00,37.6,28.8,29.99,South,180,6.5,10.2,70,0.00,,,0.00,WUHU216HW,2013-01-19 04:03:00,
2013-01-18 22:08:00,37.6,28.8,29.99,SW,216,5.4,9.4,70,0.00,,,0.00,WUHU216HW,2013-01-19 04:08:00,
2013-01-18 22:13:00,37.6,28.8,29.99,SSW,213,7.0,14.8,70,0.00,,,0.00,WUHU216HW,2013-01-19 04:13:00,
2013-01-18 22:18:00,37.8,29.0,29.99,SSW,195,8.0,14.8,70,0.00,,,0.00,WUHU216HW,2013-01-19 04:18:00,
2013-01-18 22:23:00,37.8,29.0,29.99,SSW,213,4.3,13.2,70,0.00,,,0.00,WUHU216HW,2013-01-19 04:23:00,
2013-01-18 22:28:00,37.8,29.0,29.98,SSW,193,5.6,11.3,70,0.00,,,0.00,WUHU216HW,2013-01-19 04:28:00,
2013-01-18 22:33:00,37.8,29.0,29.98,SW,225,4.8,13.4,70,0.00,,,0.00,WUHU216HW,2013-01-19 04:33:00,
2013-01-18 22:38:00,37.8,29.0,29.98,SW,225,6.5,13.4,70,0.00,,,0.00,WUHU216HW,2013-01-19 04:38:00,
2013-01-18 22:43:00,37.8,29.0,29.98,SSW,203,10.2,11.5,70,0.00,,,0.00,WUHU216HW,2013-01-19 04:43:00,
2013-01-18 22:48:00,37.8,28.5,29.98,WSW,248,6.1,11.3,69,0.00,,,0.00,WUHU216HW,2013-01-19 04:48:00,
2013-01-18 22:53:00,38.0,28.7,29.98,SW,224,6.7,11.3,69,0.00,,,0.00,WUHU216HW,2013-01-19 04:53:00,
2013-01-18 22:58:00,38.0,28.7,29.98,SSW,203,9.4,9.4,69,0.00,,,0.00,WUHU216HW,2013-01-19 04:58:00,
2013-01-18 23:00:00,38.0,28.7,29.98,SW,225,11.8,11.8,69,0.00,,,0.00,WUHU216HW,2013-01-19 05:00:00,
2013-01-18 23:01:00,37.8,28.5,29.98,SW,217,8.6,11.8,69,0.00,,,0.00,WUHU216HW,2013-01-19 05:01:00,
2013-01-18 23:03:00,37.8,28.5,29.98,WSW,248,7.8,11.8,69,0.00,,,0.00,WUHU216HW,2013-01-19 05:03:00,
2013-01-18 23:08:00,37.8,28.5,29.98,SSW,201,4.9,11.8,69,0.00,,,0.00,WUHU216HW,2013-01-19 05:08:00,
2013-01-18 23:13:00,37.8,29.0,29.98,SW,225,4.8,13.2,70,0.00,,,0.00,WUHU216HW,2013-01-19 05:13:00,
2013-01-18 23:18:00,37.8,29.0,29.97,WSW,248,7.6,13.7,70,0.00,,,0.00,WUHU216HW,2013-01-19 05:18:00,
2013-01-18 23:23:00,38.0,28.7,29.98,South,180,8.6,13.7,69,0.00,,,0.00,WUHU216HW,2013-01-19 05:23:00,
2013-01-18 23:28:00,38.0,28.7,29.97,South,180,10.2,10.2,69,0.00,,,0.00,WUHU216HW,2013-01-19 05:28:00,
2013-01-18 23:33:00,38.0,29.1,29.97,SSW,203,8.3,10.2,70,0.00,,,0.00,WUHU216HW,2013-01-19 05:33:00,
2013-01-18 23:38:00,38.0,28.7,29.97,South,179,7.1,10.2,69,0.00,,,0.00,WUHU216HW,2013-01-19 05:38:00,
2013-01-18 23:43:00,38.2,29.3,29.97,SSW,203,11.0,11.0,70,0.00,,,0.00,WUHU216HW,2013-01-19 05:43:00,
2013-01-18 23:48:00,38.2,28.9,29.97,SSW,209,8.3,11.0,69,0.00,,,0.00,WUHU216HW,2013-01-19 05:48:00,
2013-01-18 23:53:00,38.2,29.3,29.97,SW,226,7.6,11.0,70,0.00,,,0.00,WUHU216HW,2013-01-19 05:53:00,
2013-01-18 23:58:00,38.2,28.9,29.97,South,180,5.9,10.0,69,0.00,,,0.00,WUHU216HW,2013-01-19 05:58:00,